Location: Newark
(27.9675°N, 86.8869°E)
Time: 18:32:50
(UTC+00:00)

Courier 1B Rocket - Pass Details

Date: 29 October 2019
Orbit: 920 x 1202 km, 28.2° (Epoch: 16 November)

Event Time Altitude Azimuth Distance (km) Brightness Sun altitude
Exits shadow 21:18:07 24° 111° (ESE) 1,823 6.8 -41.0°
Drops below altitude 10° 21:20:21 10° 108° (ESE) 2,604 7.8 -40.5°
Sets 21:22:56 0° 107° (ESE) 3,543 8.7 -40.0°
